Torna al catalogo

COSMOS 2251 DEB

AttivoLEO
NORAD 35997·DEBRIS·🇷🇺 Russia

Lanciato Jun 16, 1993 da Plesetsk Cosmodrome

Loading…

Prossimi Passaggi (prossime 24 ore)

TLE

In scadenzaSource: Space-Track

Epoca: Sep 10, 2026, 16:00 UTC

1 35997U 93036AWP 26253.66677904  .00001340  00000-0  33413-3 0  9992
2 35997  74.0436  35.2084 0014918  42.3049 317.9260 14.52569035748317

Traccia COSMOS 2251 DEB in tempo reale con AllMySat

Download on the App Store